Vendor, AR (72683)

12:07 AM CST on March 06, 2015 (GMT -0600)
Parthenon AR | Change Station
CLOSE
Current Station
Personal Weather Station
Location: Parthenon, AR
Elevation: 1119 ft
Nearby Weather Stations
Active Advisory: Special Statement Active Notice: Local Storm Report

Elev 1119 ft 35.95 °N, 93.28 °W | Updated 6 minutes ago

Clear
Clear
17.8 °F
Feels Like 18 °F
N
0.0
Wind Variable Wind from East
Gusts 1.0 mph

Today
High -- | Low -- °F
--% Chance of Precip.
Yesterday
High -- | Low -- °F
Precip. -- in
6:36 AM 6:11 PM
Full, 100% visible
Pressure 30.56 in
Visibility 10.0 miles
Clouds Clear
Windchill 18 °F
Dew Point 16 °F
Humidity 91%
Rainfall in
Snow Depth Not available.
UV 0 out of 12
Pollen 5.30 out of 12
Air Quality Not available.
Flu Activity Not available.
METAR KHRO 060553Z AUTO 18003KT 10SM CLR M07/M11 A3051 RMK AO2 SLP349 T10671111 11011 21072 400111083 58003

More Conditions Fewer Conditions

Pressure 30.56 in
Visibility 10.0 miles
Clouds Clear
Windchill 18 °F
Dew Point 16 °F
Humidity 91%
Rainfall in
Snow Depth Not available.
UV 0 out of 12
Pollen 5.30 out of 12
Air Quality Not available.
Flu Activity Not available.
METAR KHRO 060553Z AUTO 18003KT 10SM CLR M07/M11 A3051 RMK AO2 SLP349 T10671111 11011 21072 400111083 58003

More Conditions Fewer Conditions

10-Day Weather Forecast

Almanac

Astronomy

Mar. 06, 2015 Rise Set
Actual Time
Civil Twilight
Nautical Twilight
Astronomical Twilight
Moon
Length of Visible Light
Length of Day
Tomorrow will be .
, % of the Moon is Illuminated

Today's Extremes

State Highs State Lows

Community

WunderPhotos

Upload Photos

1,803,194 photos uploaded!

WunderBlogs® & News

Nearby

Air Quality

  Air Quality AQ Index Pollutant
Not available.

Snow Depth

Station Depth Elevation

Earthquake Activity

City Distance Mag. Time & Date
Minimum magnitude displayed is 2.5.

Coastal Water Temperatures

Place Temperature

Nearby Weather Stations

Special Statement
Statement as of 3:51 PM CST on March 05, 2015

... Near record low temperatures expected tonight...

In the wake of our latest winter event... full sunshine and an
increasingly strong sun angle allowed for considerable melting
on area roadways.

However... temperatures tonight are expected to plunge to well
below freezing and will approach record lows in many areas. This
will allow any water... slush or snow remaining on area roads to
freeze creating icy and dangerous travel conditions.

Additional melting will occur on Friday with another day of full
sunshine and temperatures a few degrees warmer than what was seen
on Thursday. Highs are expected to top out in the mid 30s to mid
40s with the coldest temperatures occurring where the snow pack is
the deepest.

Please exercise extreme caution if you must travel tonight and
especially around sunrise when temperatures will be at their
lowest. Allow plenty of time to reach your destination safely.


56